Time+03,TemperatureF,Dew PointF,Humidity,Sea Level PressureIn,VisibilityMPH,Wind Direction,Wind SpeedMPH,Gust SpeedMPH,PrecipitationIn,Events,Conditions,WindDirDegrees,DateUTC
12:00 AM,55,37,39,30.12,6,WNW,8.1,,,,,290,2014-01-07 21:00:00
12:00 AM,55.4,37.4,51,30.09,-9999.0,WNW,8.1,-,N/A,,Clear,290,2014-01-07 21:00:00
12:30 AM,55.4,37.4,51,30.12,-9999.0,West,5.8,-,N/A,,Clear,280,2014-01-07 21:30:00
1:00 AM,53.6,39.2,58,30.09,-9999.0,West,5.8,-,N/A,,Clear,270,2014-01-07 22:00:00
1:30 AM,55.4,41.0,58,30.09,-9999.0,WNW,8.1,-,N/A,,Clear,300,2014-01-07 22:30:00
2:00 AM,55.4,42.8,63,30.09,-9999.0,West,5.8,-,N/A,,Clear,270,2014-01-07 23:00:00
2:30 AM,55.4,42.8,63,30.09,-9999.0,WNW,10.4,-,N/A,,Clear,300,2014-01-07 23:30:00
3:00 AM,55,44,56,30.11,6,WNW,8.1,,,,,290,2014-01-08 00:00:00
3:00 AM,55.4,44.6,67,30.09,-9999.0,WNW,8.1,-,N/A,,Clear,290,2014-01-08 00:00:00
3:30 AM,55.4,42.8,63,30.09,-9999.0,WNW,11.5,-,N/A,,Clear,300,2014-01-08 00:30:00
4:00 AM,55.4,42.8,63,30.09,-9999.0,WNW,12.7,-,N/A,,Clear,300,2014-01-08 01:00:00
4:30 AM,55.4,42.8,63,30.09,-9999.0,WNW,12.7,-,N/A,,Clear,300,2014-01-08 01:30:00
5:00 AM,55.4,44.6,67,30.09,-9999.0,West,8.1,-,N/A,,Clear,280,2014-01-08 02:00:00
5:30 AM,55.4,44.6,67,30.12,-9999.0,WNW,6.9,-,N/A,,Clear,290,2014-01-08 02:30:00
6:00 AM,55,45,60,30.15,6,West,6.9,,,,Scattered Clouds,280,2014-01-08 03:00:00
6:00 AM,55.4,44.6,67,30.12,-9999.0,West,6.9,-,N/A,,Clear,280,2014-01-08 03:00:00
6:30 AM,53.6,44.6,72,30.12,5.0,West,5.8,-,N/A,,Unknown,280,2014-01-08 03:30:00
7:00 AM,55.4,44.6,67,30.15,5.6,West,5.8,-,N/A,,Unknown,280,2014-01-08 04:00:00
8:00 AM,57.2,46.4,67,30.18,-9999.0,West,8.1,-,N/A,,Clear,270,2014-01-08 05:00:00
8:30 AM,57.2,46.4,67,30.18,-9999.0,West,9.2,-,N/A,,Clear,280,2014-01-08 05:30:00
9:00 AM,59.0,46.4,63,30.21,-9999.0,Variable,6.9,-,N/A,,Clear,0,2014-01-08 06:00:00
9:30 AM,60.8,46.4,59,30.21,-9999.0,West,9.2,-,N/A,,Clear,280,2014-01-08 06:30:00
10:00 AM,60.8,48.2,63,30.18,-9999.0,WNW,9.2,-,N/A,,Clear,300,2014-01-08 07:00:00
11:00 AM,62.6,48.2,59,30.18,-9999.0,WNW,9.2,-,N/A,,Clear,300,2014-01-08 08:00:00
12:00 PM,65,48,44,30.17,6,WNW,9.2,,,,Mostly Cloudy,290,2014-01-08 09:00:00
12:00 PM,66.2,48.2,52,30.15,-9999.0,WNW,9.2,-,N/A,,Clear,290,2014-01-08 09:00:00
1:00 PM,64.4,48.2,56,30.12,-9999.0,WNW,9.2,-,N/A,,Clear,300,2014-01-08 10:00:00
1:30 PM,66.2,50.0,56,30.12,-9999.0,WNW,9.2,-,N/A,,Clear,300,2014-01-08 10:30:00
2:00 PM,66.2,48.2,52,30.12,-9999.0,NW,10.4,-,N/A,,Clear,320,2014-01-08 11:00:00
2:30 PM,66.2,50.0,56,30.12,-9999.0,NNW,11.5,-,N/A,,Clear,340,2014-01-08 11:30:00
3:00 PM,65,51,49,30.13,7,NW,9.2,,,,Partly Cloudy,320,2014-01-08 12:00:00
3:00 PM,66.2,50.0,56,30.12,-9999.0,NW,9.2,-,N/A,,Clear,320,2014-01-08 12:00:00
3:30 PM,66.2,50.0,56,30.12,-9999.0,NW,9.2,-,N/A,,Clear,320,2014-01-08 12:30:00
4:00 PM,64.4,51.8,64,30.12,-9999.0,NNW,9.2,-,N/A,,Clear,330,2014-01-08 13:00:00
4:30 PM,64.4,51.8,64,30.15,-9999.0,NW,8.1,-,N/A,,Clear,320,2014-01-08 13:30:00
5:00 PM,64.4,51.8,64,30.15,5.0,NNW,9.2,-,N/A,,Unknown,330,2014-01-08 14:00:00
5:30 PM,62.6,51.8,68,30.15,5.0,NW,8.1,-,N/A,,Unknown,320,2014-01-08 14:30:00
6:00 PM,62,51,58,30.19,5,NW,6.9,,,,Haze,310,2014-01-08 15:00:00
6:00 PM,62.6,51.8,68,30.18,5.0,NW,6.9,-,N/A,,Unknown,310,2014-01-08 15:00:00
6:30 PM,62.6,51.8,68,30.18,5.0,NW,6.9,-,N/A,,Unknown,320,2014-01-08 15:30:00
7:00 PM,60.8,51.8,72,30.18,5.0,NW,9.2,-,N/A,,Unknown,310,2014-01-08 16:00:00
7:30 PM,60.8,51.8,72,30.18,4.3,NW,6.9,-,N/A,,Unknown,310,2014-01-08 16:30:00
8:00 PM,60.8,51.8,72,30.18,4.3,NW,9.2,-,N/A,,Unknown,310,2014-01-08 17:00:00
8:30 PM,60.8,50.0,68,30.21,4.3,NW,8.1,-,N/A,,Unknown,310,2014-01-08 17:30:00
9:00 PM,60,51,64,30.22,4,NW,8.1,,,,Haze,310,2014-01-08 18:00:00
9:00 PM,60.8,51.8,72,30.21,4.3,NW,8.1,-,N/A,,Unknown,310,2014-01-08 18:00:00
9:30 PM,60.8,50.0,68,30.21,4.3,NW,8.1,-,N/A,,Unknown,310,2014-01-08 18:30:00
10:00 PM,59.0,50.0,72,30.21,3.7,WNW,8.1,-,N/A,,Unknown,300,2014-01-08 19:00:00
10:30 PM,59.0,50.0,72,30.18,3.7,WNW,6.9,-,N/A,,Unknown,300,2014-01-08 19:30:00
11:00 PM,59.0,50.0,72,30.18,3.7,NW,6.9,-,N/A,,Unknown,310,2014-01-08 20:00:00